[[{"header":{"parameterUnit":"m.s-1","parameterCategory":1,"la1":30.2991,"la2":30.254,"lo1":-89.0895,"lo2":-89.0444,"dy":0.0017,"dx":0.0017,"nx":28,"ny":28,"refTime":"2025-11-06T03:00:00:Z","depth":0,"parameterNumber":2,"parameterNumberName":"U-component_of_WINDS"},"data":[0,0,0,0,0,0,0,0,0,0,0,0,0,0,0,0,0,0,0,0,0,0,0,0,0,0,0,0,0,0,0,0,0,0,0,0,0,0,0,0,0,0,0,0,0,0,0,0,0,0,0,0,0,0,0,0,0,0,-2.829,-2.8289,0,-2.8205,-2.8204,-2.8203,-2.8148,-2.8147,-2.8147,-2.8147,-2.8058,-2.8056,-2.8054,0,0,0,0,0,0,0,0,0,0,0,0,0,-2.8407,-2.8405,-2.829,-2.8289,-2.8288,-2.8205,-2.8204,-2.8202,-2.8148,-2.8147,-2.8147,-2.8146,-2.8059,-2.8056,-2.8054,0,0,0,0,0,0,0,0,0,0,0,0,0,-2.8343,-2.8405,-2.8291,-2.8251,-2.8246,-2.8205,-2.8204,-2.8202,-2.8148,-2.8147,-2.8147,-2.8146,-2.806,-2.8057,-2.8054,-2.8045,0,0,-2.8044,-2.8043,0,0,0,0,0,0,0,0,-2.8346,-2.8338,-2.8258,-2.8253,-2.8248,-2.8186,-2.8212,-2.8149,-2.8148,-2.8185,-2.8147,-2.8146,-2.8101,-2.8095,-2.808,-2.804,-2.8037,-2.8044,-2.8042,-2.8041,-2.804,0,0,0,0,0,0,0,-2.8351,-2.8342,-2.8256,-2.8257,-2.8251,-2.8238,-2.8228,-2.82,-2.8147,-2.8182,-2.8178,-2.8168,-2.8098,-2.8083,-2.8077,-2.8035,-2.8044,-2.8041,-2.8039,-2.8038,-2.7988,-2.7988,0,0,0,0,0,0,-2.8362,-2.8346,-2.8259,-2.8254,-2.8297,-2.8236,-2.8225,-2.8207,-2.8147,-2.8138,-2.8169,-2.8166,-2.8088,-2.8081,-2.8074,-2.8061,-2.8041,-2.8038,-2.8036,-2.7987,-2.7988,-2.7988,0,0,0,0,0,0,-2.8364,-2.8354,-2.8263,-2.8299,-2.8286,-2.8234,-2.8214,-2.8205,-2.8189,-2.8137,-2.8128,-2.8162,-2.8087,-2.8078,-2.8053,-2.8057,-2.8036,-2.8034,-2.7987,-2.7987,-2.7988,-2.8035,0,0,0,0,0,0,-2.8368,-2.8356,-2.8351,-2.8299,-2.8284,-2.8243,-2.8215,-2.8204,-2.8184,-2.818,-2.8129,-2.812,-2.8086,-2.8058,-2.805,-2.8053,-2.8031,-2.7986,-2.7987,-2.7988,-2.8033,-2.8038,-2.8041,0,0,0,0,0,-2.8372,-2.8367,-2.8351,-2.8341,-2.8278,-2.8243,-2.8235,-2.8197,-2.8185,-2.8181,-2.8148,-2.8121,-2.8058,-2.8056,-2.8046,-2.8048,-2.7985,-2.7987,-2.7988,-2.8031,-2.8037,-2.8041,0,0,0,0,0,0,-2.842,-2.836,-2.8341,-2.8319,-2.8287,-2.8234,-2.8227,-2.8203,-2.8173,-2.817,-2.8124,-2.8113,-2.8093,-2.8068,-2.8066,-2.8038,-2.8019,-2.8018,-2.8055,-2.806,-2.8064,-2.8071,-2.8029,0,0,0,0,0,-2.8429,-2.8406,-2.8354,-2.8339,-2.8324,-2.8279,-2.8262,-2.8236,-2.8201,-2.8187,-2.8151,-2.8118,-2.8091,-2.8074,-2.8046,-2.8029,-2.8018,-2.8026,-2.803,-2.8034,-2.8034,-2.8026,-2.803,-2.7992,-2.7992,-2.7992,0,0,-2.8445,-2.8409,-2.8397,-2.8348,-2.832,-2.8298,-2.8267,-2.8245,-2.8228,-2.8183,-2.8158,-2.8131,-2.8091,-2.8071,-2.806,-2.8049,-2.8042,-2.8035,-2.8039,-2.8037,-2.8028,-2.8031,-2.8035,-2.7993,-2.7993,-2.7992,0,0,-2.8464,-2.8434,-2.8419,-2.8393,-2.8351,-2.8321,-2.8318,-2.8269,-2.825,-2.8224,-2.8191,-2.8171,-2.8124,-2.8098,-2.8078,-2.8091,-2.8066,-2.8083,-2.8104,-2.8097,-2.81,-2.8103,-2.8109,-2.8112,-2.8083,-2.8083,-2.8083,0,-2.8489,-2.8455,-2.8415,-2.8395,-2.8376,-2.8335,-2.8321,-2.8296,-2.8248,-2.8235,-2.8224,-2.8167,-2.8137,-2.8111,-2.8115,-2.8099,-2.8096,-2.8088,-2.8103,-2.8105,-2.8107,-2.8112,-2.8115,-2.8085,-2.8085,-2.8085,-2.8085,0,-2.8489,-2.8466,-2.8459,-2.8415,-2.8394,-2.8378,-2.8336,-2.832,-2.8297,-2.8269,-2.8244,-2.8207,-2.8172,-2.8164,-2.814,-2.8136,-2.8131,-2.8112,-2.8092,-2.8113,-2.8118,-2.812,-2.8089,-2.8088,-2.8087,-2.8087,0,0,-2.8534,-2.847,-2.8469,-2.8449,-2.8402,-2.8383,-2.8365,-2.8332,-2.832,-2.8289,-2.8274,-2.8237,-2.822,-2.8198,-2.8171,-2.8164,-2.8179,-2.8146,-2.8145,-2.8155,-2.8175,-2.8191,-2.8194,-2.8163,-2.8163,-2.8163,-2.8179,0,-2.8547,-2.8513,-2.8478,-2.8457,-2.8437,-2.8399,-2.8384,-2.8354,-2.8327,-2.8306,-2.8277,-2.8253,-2.8231,-2.8218,-2.821,-2.8179,-2.8183,-2.8177,-2.8149,-2.8149,-2.8162,-2.8195,-2.8211,-2.8228,-2.818,-2.8181,-2.8181,0,-2.8557,-2.8529,-2.8506,-2.8463,-2.8453,-2.844,-2.8408,-2.8388,-2.8354,-2.8336,-2.8313,-2.8285,-2.8266,-2.8248,-2.8222,-2.8219,-2.8206,-2.8189,-2.8189,-2.8185,-2.8167,-2.8195,-2.8232,-2.8236,-2.8183,-2.8183,-2.8182,0,-2.8594,-2.8551,-2.8532,-2.8516,-2.8465,-2.8458,-2.8436,-2.8401,-2.8385,-2.8357,-2.8346,-2.8316,-2.83,-2.8278,-2.8243,-2.8233,-2.8221,-2.82,-2.8207,-2.8208,-2.8206,-2.8207,-2.8244,-2.8196,-2.8196,-2.8196,-2.8196,0,-2.8613,-2.8601,-2.8549,-2.8538,-2.8524,-2.8484,-2.8472,-2.8447,-2.8417,-2.8401,-2.8366,-2.8352,-2.8306,-2.8287,-2.8259,-2.8243,-2.8236,-2.8221,-2.8215,-2.8225,-2.8227,-2.8216,-2.8215,-2.8196,-2.8196,-2.8196,-2.8196,0,-2.8652,-2.8616,-2.8594,-2.8549,-2.8537,-2.853,-2.8491,-2.8479,-2.8452,-2.8432,-2.8425,-2.8383,-2.8359,-2.8322,-2.8286,-2.8268,-2.8257,-2.8244,-2.8269,-2.8265,-2.8274,-2.8275,-2.8306,-2.831,-2.8259,-2.8259,-2.826,0,-2.8666,-2.8657,-2.8611,-2.8598,-2.8579,-2.8558,-2.8541,-2.8503,-2.8487,-2.8449,-2.8443,-2.8416,-2.8393,-2.8356,-2.8322,-2.8296,-2.8283,-2.8296,-2.8279,-2.8291,-2.8286,-2.8288,-2.8287,-2.8301,-2.8302,-2.8302,-2.8303,0,-2.8696,-2.868,-2.8658,-2.863,-2.8612,-2.8588,-2.8562,-2.8554,-2.851,-2.8494,-2.847,-2.8452,-2.8417,-2.8392,-2.8361,-2.8339,-2.8315,-2.8309,-2.8309,-2.832,-2.8336,-2.833,-2.8282,-2.8308,-2.8307,-2.8307,-2.8307,-2.8307,-2.8724,-2.8715,-2.8683,-2.866,-2.8637,-2.8615,-2.8602,-2.8575,-2.8554,-2.8523,-2.8502,-2.8479,-2.8448,-2.8404,-2.8384,-2.8367,-2.8356,-2.8356,-2.8356,-2.8357,-2.8362,-2.8338,-2.8361,-2.836,-2.836,-2.836,-2.836,0,-2.8754,-2.8732,-2.8712,-2.8678,-2.8661,-2.864,-2.8611,-2.8598,-2.8579,-2.8552,-2.853,-2.8504,-2.848,-2.8446,-2.8419,-2.8412,-2.8401,-2.8407,-2.8408,-2.8404,-2.8372,-2.8375,-2.8417,-2.8417,-2.8417,-2.8417,-2.8417,-2.8417,-2.8768,-2.8752,-2.8733,-2.8706,-2.8684,-2.8662,-2.8648,-2.8628,-2.8607,-2.8579,-2.856,-2.8537,-2.8508,-2.848,-2.8458,-2.8448,-2.8441,-2.8452,-2.8439,-2.8411,-2.8405,-2.84,-2.8403,-2.845,-2.845,-2.8472,-2.8472,-2.8472]},{"header":{"parameterUnit":"m.s-1","parameterCategory":1,"la1":30.2991,"la2":30.254,"lo1":-89.0895,"lo2":-89.0444,"dy":0.0017,"dx":0.0017,"nx":28,"ny":28,"refTime":"2025-11-06T03:00:00:Z","depth":0,"parameterNumber":3,"parameterNumberName":"V-component_of_WINDS"},"data":[0,0,0,0,0,0,0,0,0,0,0,0,0,0,0,0,0,0,0,0,0,0,0,0,0,0,0,0,0,0,0,0,0,0,0,0,0,0,0,0,0,0,0,0,0,0,0,0,0,0,0,0,0,0,0,0,0,0,0.0501,0.0501,0,0.0496,0.0496,0.0496,0.0536,0.0537,0.0538,0.0539,0.0531,0.0529,0.0528,0,0,0,0,0,0,0,0,0,0,0,0,0,0.054,0.0539,0.0501,0.0501,0.0501,0.0496,0.0496,0.0496,0.0536,0.0537,0.0539,0.054,0.0531,0.0529,0.0528,0,0,0,0,0,0,0,0,0,0,0,0,0,0.0528,0.0539,0.0501,0.052,0.0522,0.0496,0.0496,0.0496,0.0536,0.0537,0.0539,0.0541,0.0531,0.053,0.0528,0.0482,0,0,0.0522,0.0521,0,0,0,0,0,0,0,0,0.0529,0.0526,0.0517,0.0519,0.0521,0.0519,0.0507,0.0491,0.0535,0.053,0.0539,0.0541,0.0525,0.0524,0.0519,0.0482,0.0481,0.0522,0.052,0.052,0.0519,0,0,0,0,0,0,0,0.0529,0.0527,0.0499,0.0517,0.0519,0.0528,0.0528,0.0504,0.0518,0.0531,0.0534,0.0533,0.0526,0.0521,0.0519,0.0481,0.0522,0.052,0.0519,0.0518,0.0405,0.0403,0,0,0,0,0,0,0.0528,0.0527,0.0499,0.0499,0.0529,0.0526,0.0526,0.0517,0.0518,0.052,0.0531,0.0535,0.0523,0.0521,0.0519,0.0464,0.052,0.0518,0.0517,0.0406,0.0404,0.0402,0,0,0,0,0,0,0.0529,0.0525,0.0499,0.0514,0.0511,0.0523,0.0513,0.0516,0.0511,0.0519,0.0521,0.0523,0.0524,0.0522,0.0491,0.0464,0.0517,0.0515,0.0409,0.0406,0.0403,0.0355,0,0,0,0,0,0,0.053,0.0525,0.0509,0.0513,0.051,0.0472,0.0512,0.0515,0.0508,0.0512,0.0512,0.0514,0.0526,0.0493,0.0489,0.0463,0.0514,0.0411,0.0407,0.0404,0.0359,0.035,0.0344,0,0,0,0,0,0.0531,0.0495,0.0508,0.0504,0.049,0.0471,0.0469,0.0484,0.0506,0.0489,0.0494,0.0514,0.0469,0.049,0.0485,0.0458,0.0413,0.0408,0.0404,0.0362,0.0352,0.0344,0,0,0,0,0,0,0.0486,0.0496,0.051,0.0475,0.0472,0.0477,0.0456,0.0474,0.0463,0.0467,0.0486,0.0486,0.0451,0.0452,0.0476,0.0413,0.0444,0.0439,0.0414,0.0404,0.0397,0.0396,0.0512,0,0,0,0,0,0.0472,0.0456,0.0466,0.0433,0.0431,0.0444,0.0436,0.0448,0.0445,0.0444,0.0447,0.0442,0.0427,0.0416,0.0402,0.036,0.0359,0.0338,0.0331,0.0325,0.0319,0.0295,0.0285,0.0388,0.0388,0.0388,0,0,0.0442,0.0446,0.0435,0.0424,0.0423,0.0405,0.0442,0.0422,0.0408,0.044,0.0411,0.0413,0.0409,0.0372,0.0356,0.0371,0.0291,0.0319,0.0314,0.0312,0.029,0.028,0.0271,0.0386,0.0386,0.0386,0,0,0.0379,0.0381,0.0353,0.0352,0.0351,0.036,0.0353,0.0356,0.0359,0.0331,0.0354,0.0338,0.0312,0.0307,0.0302,0.0237,0.0254,0.0232,0.0192,0.0168,0.016,0.0153,0.0128,0.0119,0.0227,0.0227,0.0227,0,0.0341,0.0317,0.0337,0.0315,0.0308,0.0338,0.031,0.0307,0.0301,0.0295,0.0314,0.0281,0.028,0.0241,0.0226,0.0221,0.0212,0.0231,0.016,0.0153,0.0146,0.0122,0.0113,0.0224,0.0224,0.0225,0.0225,0,0.027,0.0252,0.023,0.0224,0.0216,0.0191,0.0206,0.0195,0.0208,0.0215,0.0184,0.0185,0.0172,0.0164,0.0177,0.0127,0.0136,0.0157,0.0188,0.0133,0.0111,0.0102,0.022,0.0221,0.0222,0.0222,0,0,0.0176,0.0182,0.0173,0.0171,0.0172,0.0158,0.0134,0.0122,0.0111,0.0106,0.0085,0.0062,0.0081,0.0075,0.0087,0.0067,0.0013,0.009,0.009,0.0073,-0.0044,-0.0062,-0.0072,0.0026,0.0024,0.0023,-0.0045,0,0.0112,0.0072,0.0089,0.0046,0.0029,0.0058,0.0037,0.0034,0.004,0.0025,0.0031,0.0014,0.0042,0.0038,0.0019,0.0024,-0.0011,0.0029,0.0003,0.0002,0.0001,-0.0084,-0.0102,-0.0166,-0.0053,-0.0054,-0.0055,0,0.0032,0.0025,-0.002,-0.0016,-0.0022,-0.0042,-0.0052,-0.0065,-0.0068,-0.0062,-0.0069,-0.0052,-0.0077,-0.0044,-0.008,-0.0053,-0.0062,-0.0062,-0.0064,-0.0068,-0.0032,-0.0092,-0.0185,-0.0196,-0.0068,-0.0067,-0.0066,0,-0.0035,-0.0056,-0.0085,-0.0088,-0.0084,-0.0099,-0.0098,-0.0098,-0.0107,-0.0116,-0.0121,-0.0133,-0.0141,-0.0151,-0.0138,-0.0115,-0.0177,-0.0142,-0.0175,-0.0175,-0.0191,-0.0191,-0.029,-0.0193,-0.0193,-0.0193,-0.0192,0,-0.0109,-0.0138,-0.0115,-0.0134,-0.0166,-0.0145,-0.0178,-0.0174,-0.0175,-0.0193,-0.0168,-0.0187,-0.0167,-0.0184,-0.0174,-0.0206,-0.0209,-0.0207,-0.0205,-0.0211,-0.0212,-0.0218,-0.0215,-0.0195,-0.0195,-0.0194,-0.0194,0,-0.0191,-0.0176,-0.0207,-0.02,-0.0199,-0.0223,-0.0218,-0.0235,-0.0227,-0.0251,-0.0255,-0.0243,-0.0262,-0.0249,-0.0268,-0.0261,-0.0304,-0.0294,-0.0303,-0.0301,-0.0336,-0.0334,-0.0445,-0.0459,-0.0351,-0.0352,-0.0353,0,-0.0241,-0.0262,-0.0257,-0.0267,-0.0267,-0.0283,-0.0292,-0.0272,-0.0282,-0.0286,-0.0304,-0.032,-0.0332,-0.0363,-0.0357,-0.0371,-0.0363,-0.0401,-0.0365,-0.0371,-0.0367,-0.0367,-0.037,-0.0409,-0.041,-0.0411,-0.0412,0,-0.0331,-0.0323,-0.0335,-0.0345,-0.0355,-0.0362,-0.0367,-0.0377,-0.0357,-0.037,-0.0387,-0.0397,-0.0415,-0.0432,-0.0444,-0.0445,-0.0427,-0.0423,-0.0432,-0.044,-0.0445,-0.0445,-0.0325,-0.0421,-0.042,-0.042,-0.0419,-0.0419,-0.04,-0.0418,-0.0417,-0.0432,-0.0433,-0.0439,-0.0455,-0.0448,-0.0462,-0.0475,-0.0463,-0.0485,-0.0488,-0.0501,-0.0504,-0.0522,-0.0507,-0.052,-0.0523,-0.0527,-0.0533,-0.044,-0.0524,-0.0524,-0.0524,-0.0523,-0.0523,0,-0.0491,-0.0489,-0.0502,-0.051,-0.0521,-0.05,-0.0505,-0.0517,-0.0536,-0.0539,-0.0551,-0.0572,-0.0588,-0.0583,-0.0598,-0.0613,-0.0606,-0.0618,-0.0618,-0.0619,-0.0544,-0.0536,-0.0624,-0.0624,-0.0624,-0.0624,-0.0624,-0.0624,-0.054,-0.057,-0.0561,-0.0592,-0.059,-0.061,-0.0615,-0.0621,-0.0623,-0.0647,-0.066,-0.0656,-0.0656,-0.0671,-0.0685,-0.0683,-0.0691,-0.0708,-0.0703,-0.0634,-0.0624,-0.0615,-0.0607,-0.0709,-0.0709,-0.0777,-0.0777,-0.0778]}]]